LOT225A EPKK-EPSC

Flight info

Callsign LOT225A
Flight time 0h 54m
Altitude 28000
Route LUMVE L619 DENKO L996 XERBI DCT FORFE DCT ZAWIK
Aircraft B738/M-SDE2E3FGHIRWXY/LB1

Departure

Time 2026-04-26 18:37
Airport Kraków John Paul II International Airport (EPKK)

Arrival

Time 2026-04-26 19:32
Airport Solidarity Szczecin–Goleniów Airport (EPSC)
Time Latitude Longitude Altitude Speed Heading
2026-04-26 17:57 50.07342 19.80205 799 ft 0 kts 168°
2026-04-26 18:26 50.07365 19.80198 799 ft 4 kts 168°
2026-04-26 18:27 50.07391 19.80189 799 ft 3 kts 168°
2026-04-26 18:27 50.07410 19.80180 799 ft 4 kts 128°
2026-04-26 18:27 50.07416 19.80146 799 ft 3 kts 78°
2026-04-26 18:27 50.07412 19.80122 799 ft 0 kts 77°
2026-04-26 18:31 50.07413 19.80125 799 ft 1 kts 77°
2026-04-26 18:31 50.07419 19.80170 799 ft 7 kts 77°
2026-04-26 18:31 50.07431 19.80257 799 ft 9 kts 77°
2026-04-26 18:31 50.07447 19.80347 799 ft 9 kts 59°
2026-04-26 18:32 50.07498 19.80390 799 ft 8 kts 16°
2026-04-26 18:32 50.07553 19.80416 799 ft 9 kts 17°
2026-04-26 18:32 50.07619 19.80411 799 ft 11 kts 347°
2026-04-26 18:32 50.07704 19.80383 799 ft 14 kts 347°
2026-04-26 18:33 50.07795 19.80352 799 ft 11 kts 349°
2026-04-26 18:33 50.07846 19.80335 799 ft 0 kts 350°
2026-04-26 18:35 50.07895 19.80319 799 ft 16 kts 347°
2026-04-26 18:35 50.08003 19.80273 799 ft 10 kts 339°
2026-04-26 18:35 50.08014 19.80212 799 ft 0 kts 258°
2026-04-26 18:36 50.08006 19.80158 800 ft 13 kts 256°
2026-04-26 18:36 50.07955 19.79779 799 ft 72 kts 258°
2026-04-26 18:37 50.07799 19.78640 800 ft 140 kts 257°
2026-04-26 18:37 50.07564 19.76890 1035 ft 176 kts 260°
2026-04-26 18:37 50.07289 19.75099 2138 ft 167 kts 259°
2026-04-26 18:37 50.06987 19.73336 3023 ft 174 kts 261°
2026-04-26 18:38 50.06724 19.71388 3638 ft 199 kts 263°
2026-04-26 18:38 50.06435 19.69116 3945 ft 227 kts 262°
2026-04-26 18:38 50.06099 19.66641 4637 ft 238 kts 262°
2026-04-26 18:38 50.05736 19.64012 5282 ft 255 kts 261°
2026-04-26 18:39 50.05355 19.61278 6230 ft 261 kts 261°
2026-04-26 18:39 50.05027 19.58499 7193 ft 262 kts 274°
2026-04-26 18:39 50.05382 19.55762 8183 ft 257 kts 291°
2026-04-26 18:39 50.05942 19.53108 9188 ft 259 kts 292°
2026-04-26 18:40 50.06517 19.50424 10172 ft 262 kts 292°
2026-04-26 18:40 50.07097 19.47690 10854 ft 275 kts 292°
2026-04-26 18:40 50.07724 19.44717 11038 ft 303 kts 292°
2026-04-26 18:40 50.08397 19.41472 11316 ft 325 kts 291°
2026-04-26 18:41 50.09087 19.38077 12054 ft 331 kts 291°
2026-04-26 18:41 50.09776 19.34646 12966 ft 332 kts 291°
2026-04-26 18:41 50.10463 19.31202 13885 ft 334 kts 291°
2026-04-26 18:41 50.11154 19.27731 14664 ft 337 kts 291°
2026-04-26 18:42 50.11861 19.24173 15400 ft 341 kts 291°
2026-04-26 18:42 50.12564 19.20628 16121 ft 345 kts 291°
2026-04-26 18:42 50.13275 19.17038 16838 ft 348 kts 291°
2026-04-26 18:42 50.13991 19.13416 17549 ft 352 kts 291°
2026-04-26 18:43 50.14713 19.09755 18251 ft 355 kts 291°
2026-04-26 18:43 50.15442 19.06049 18897 ft 359 kts 291°
2026-04-26 18:43 50.16175 19.02319 19543 ft 361 kts 291°
2026-04-26 18:43 50.16909 18.98574 20200 ft 362 kts 290°
2026-04-26 18:44 50.17646 18.94803 20826 ft 365 kts 290°
2026-04-26 18:44 50.18388 18.91005 21430 ft 367 kts 290°
2026-04-26 18:44 50.19135 18.87185 22022 ft 370 kts 291°
2026-04-26 18:44 50.20186 18.83536 22551 ft 370 kts 303°
2026-04-26 18:45 50.21738 18.80327 23121 ft 372 kts 311°
2026-04-26 18:45 50.23607 18.77505 23669 ft 376 kts 320°
2026-04-26 18:45 50.25748 18.75129 24140 ft 379 kts 323°
2026-04-26 18:45 50.27936 18.72796 24579 ft 382 kts 323°
2026-04-26 18:46 50.30144 18.70453 25026 ft 384 kts 323°
2026-04-26 18:46 50.32354 18.68099 25519 ft 385 kts 323°
2026-04-26 18:46 50.34559 18.65739 26154 ft 382 kts 323°
2026-04-26 18:46 50.36740 18.63393 26810 ft 378 kts 322°
2026-04-26 18:47 50.38902 18.61057 27396 ft 377 kts 322°
2026-04-26 18:47 50.41060 18.58718 27942 ft 377 kts 322°
2026-04-26 18:47 50.43216 18.56376 28266 ft 378 kts 322°
2026-04-26 18:47 50.45380 18.54022 28267 ft 377 kts 322°
2026-04-26 18:48 50.49709 18.49305 28286 ft 377 kts 322°
2026-04-26 18:48 50.54025 18.44610 28278 ft 378 kts 322°
2026-04-26 18:49 50.58357 18.39932 28278 ft 378 kts 322°
2026-04-26 18:49 50.62694 18.35245 28278 ft 378 kts 322°
2026-04-26 18:50 50.67023 18.30554 28279 ft 377 kts 322°
2026-04-26 18:50 50.71344 18.25859 28281 ft 377 kts 322°
2026-04-26 18:51 50.75657 18.21161 28283 ft 377 kts 322°
2026-04-26 18:51 50.79969 18.16452 28284 ft 377 kts 322°
2026-04-26 18:52 50.83582 18.12499 28283 ft 377 kts 322°
2026-04-26 18:52 50.88589 18.07008 28286 ft 377 kts 322°
2026-04-26 18:53 50.92198 18.03041 28282 ft 377 kts 322°
2026-04-26 18:53 50.96508 17.98293 28287 ft 377 kts 322°
2026-04-26 18:54 51.00817 17.93536 28284 ft 377 kts 322°
2026-04-26 18:54 51.05123 17.88771 28287 ft 377 kts 322°
2026-04-26 18:55 51.09433 17.83990 28284 ft 378 kts 322°
2026-04-26 18:55 51.13819 17.79366 28289 ft 379 kts 324°
2026-04-26 18:56 51.18307 17.74970 28290 ft 379 kts 325°
2026-04-26 18:56 51.22800 17.70570 28292 ft 379 kts 325°
2026-04-26 18:57 51.26558 17.66857 28289 ft 379 kts 325°
2026-04-26 18:57 51.31757 17.61684 28293 ft 379 kts 324°
2026-04-26 18:58 51.36230 17.57214 28291 ft 379 kts 324°
2026-04-26 18:58 51.40691 17.52744 28290 ft 379 kts 324°
2026-04-26 18:59 51.45187 17.48229 28287 ft 379 kts 324°
2026-04-26 18:59 51.49651 17.43734 28292 ft 378 kts 324°
2026-04-26 19:00 51.54108 17.39237 28298 ft 378 kts 324°
2026-04-26 19:00 51.58562 17.34732 28296 ft 378 kts 324°
2026-04-26 19:01 51.63009 17.30223 28304 ft 378 kts 324°
2026-04-26 19:01 51.67460 17.25703 28294 ft 378 kts 324°
2026-04-26 19:02 51.71899 17.21180 28302 ft 378 kts 324°
2026-04-26 19:02 51.75594 17.17407 28304 ft 378 kts 324°
2026-04-26 19:03 51.80796 17.12083 28305 ft 378 kts 324°
2026-04-26 19:03 51.85240 17.07525 28297 ft 378 kts 324°
2026-04-26 19:04 51.89675 17.02964 28297 ft 378 kts 324°
2026-04-26 19:04 51.94109 16.98394 28297 ft 377 kts 324°
2026-04-26 19:05 52.00767 16.91511 28306 ft 376 kts 323°
2026-04-26 19:06 52.05176 16.86939 28304 ft 376 kts 323°
2026-04-26 19:06 52.09583 16.82359 28303 ft 375 kts 323°
2026-04-26 19:07 52.13981 16.77777 28282 ft 376 kts 323°
2026-04-26 19:07 52.18352 16.73214 27972 ft 366 kts 323°
2026-04-26 19:07 52.20465 16.71009 27706 ft 356 kts 323°
2026-04-26 19:08 52.22534 16.68846 27445 ft 352 kts 323°
2026-04-26 19:08 52.24590 16.66690 27187 ft 351 kts 323°
2026-04-26 19:08 52.26634 16.64542 26938 ft 350 kts 323°
2026-04-26 19:08 52.28680 16.62390 26681 ft 349 kts 323°
2026-04-26 19:09 52.30721 16.60241 26443 ft 349 kts 323°
2026-04-26 19:09 52.32757 16.58096 26188 ft 348 kts 323°
2026-04-26 19:09 52.34789 16.55952 25944 ft 347 kts 323°
2026-04-26 19:09 52.36813 16.53816 25698 ft 346 kts 323°
2026-04-26 19:10 52.38834 16.51680 25463 ft 345 kts 323°
2026-04-26 19:10 52.40843 16.49555 25221 ft 343 kts 323°
2026-04-26 19:10 52.42846 16.47434 24982 ft 342 kts 323°
2026-04-26 19:10 52.44840 16.45321 24750 ft 340 kts 323°
2026-04-26 19:11 52.46823 16.43216 24517 ft 339 kts 323°
2026-04-26 19:11 52.48797 16.41119 24303 ft 336 kts 323°
2026-04-26 19:11 52.50749 16.39044 24148 ft 333 kts 323°
2026-04-26 19:11 52.52684 16.36984 23989 ft 330 kts 323°
2026-04-26 19:12 52.54607 16.34935 23818 ft 328 kts 323°
2026-04-26 19:12 52.56517 16.32896 23618 ft 327 kts 323°
2026-04-26 19:12 52.58424 16.30859 23431 ft 326 kts 323°
2026-04-26 19:12 52.60326 16.28824 23255 ft 326 kts 323°
2026-04-26 19:13 52.62228 16.26788 23067 ft 326 kts 323°
2026-04-26 19:13 52.64169 16.24705 22795 ft 332 kts 324°
2026-04-26 19:13 52.66116 16.22613 22611 ft 335 kts 324°
2026-04-26 19:13 52.68061 16.20525 22417 ft 332 kts 324°
2026-04-26 19:14 52.69991 16.18452 22232 ft 330 kts 324°
2026-04-26 19:14 52.71910 16.16388 22041 ft 328 kts 324°
2026-04-26 19:14 52.73815 16.14337 21861 ft 327 kts 324°
2026-04-26 19:14 52.74434 16.13669 21783 ft 327 kts 324°
2026-04-26 19:15 52.77636 16.10214 21257 ft 326 kts 324°
2026-04-26 19:15 52.79520 16.08178 20861 ft 322 kts 324°
2026-04-26 19:15 52.81388 16.06158 20444 ft 319 kts 324°
2026-04-26 19:15 52.83237 16.04156 20031 ft 317 kts 324°
2026-04-26 19:16 52.85073 16.02165 19613 ft 314 kts 324°
2026-04-26 19:16 52.86895 16.00189 19221 ft 312 kts 324°
2026-04-26 19:16 52.88701 15.98226 18819 ft 310 kts 324°
2026-04-26 19:16 52.90500 15.96269 18392 ft 308 kts 324°
2026-04-26 19:17 52.92286 15.94326 17952 ft 306 kts 325°
2026-04-26 19:17 52.94059 15.92394 17555 ft 303 kts 325°
2026-04-26 19:17 52.95815 15.90479 17148 ft 301 kts 325°
2026-04-26 19:17 52.97553 15.88582 16757 ft 298 kts 325°
2026-04-26 19:18 52.99281 15.86694 16363 ft 296 kts 325°
2026-04-26 19:18 53.00992 15.84822 15980 ft 294 kts 325°
2026-04-26 19:18 53.02693 15.82960 15596 ft 292 kts 325°
2026-04-26 19:18 53.04383 15.81107 15223 ft 290 kts 325°
2026-04-26 19:19 53.06063 15.79264 14849 ft 289 kts 325°
2026-04-26 19:19 53.07735 15.77428 14481 ft 287 kts 325°
2026-04-26 19:19 53.09399 15.75600 14109 ft 286 kts 325°
2026-04-26 19:19 53.11054 15.73779 13689 ft 285 kts 325°
2026-04-26 19:20 53.12700 15.71966 13362 ft 283 kts 325°
2026-04-26 19:20 53.13255 15.71356 13351 ft 281 kts 325°
2026-04-26 19:20 53.15940 15.68395 13310 ft 273 kts 325°
2026-04-26 19:20 53.17516 15.66657 13298 ft 262 kts 325°
2026-04-26 19:21 53.18996 15.65024 13296 ft 249 kts 325°
2026-04-26 19:21 53.20400 15.63471 13296 ft 236 kts 325°
2026-04-26 19:21 53.21727 15.62004 13297 ft 223 kts 325°
2026-04-26 19:21 53.22998 15.60597 13029 ft 219 kts 325°
2026-04-26 19:22 53.24325 15.59124 12025 ft 241 kts 325°
2026-04-26 19:22 53.25781 15.57506 11009 ft 262 kts 326°
2026-04-26 19:22 53.27318 15.55799 10680 ft 266 kts 326°
2026-04-26 19:22 53.28844 15.54103 10551 ft 260 kts 326°
2026-04-26 19:23 53.30270 15.52322 10378 ft 253 kts 315°
2026-04-26 19:23 53.31366 15.49922 9726 ft 265 kts 305°
2026-04-26 19:23 53.32390 15.47319 9142 ft 270 kts 304°
2026-04-26 19:23 53.33428 15.44694 8426 ft 272 kts 304°
2026-04-26 19:24 53.34483 15.42055 7773 ft 273 kts 304°
2026-04-26 19:24 53.35538 15.39434 7204 ft 270 kts 304°
2026-04-26 19:24 53.37625 15.34258 6071 ft 265 kts 304°
2026-04-26 19:25 53.38637 15.31746 5730 ft 255 kts 304°
2026-04-26 19:25 53.38970 15.30918 5618 ft 252 kts 304°
2026-04-26 19:25 53.40552 15.26987 5099 ft 237 kts 304°
2026-04-26 19:25 53.41469 15.24706 4810 ft 235 kts 304°
2026-04-26 19:26 53.42371 15.22457 4547 ft 229 kts 304°
2026-04-26 19:26 53.42963 15.20979 4352 ft 224 kts 304°
2026-04-26 19:26 53.43853 15.18879 4061 ft 217 kts 307°
2026-04-26 19:26 53.44788 15.16933 3791 ft 213 kts 310°
2026-04-26 19:27 53.45744 15.15047 3534 ft 211 kts 310°
2026-04-26 19:27 53.46696 15.13185 3268 ft 208 kts 310°
2026-04-26 19:27 53.47620 15.11382 3032 ft 200 kts 311°
2026-04-26 19:27 53.48505 15.09653 2791 ft 191 kts 311°
2026-04-26 19:28 53.49354 15.07994 2579 ft 183 kts 311°
2026-04-26 19:28 53.50154 15.06431 2466 ft 171 kts 311°
2026-04-26 19:28 53.50912 15.04953 2287 ft 164 kts 311°
2026-04-26 19:28 53.51647 15.03518 2062 ft 159 kts 311°
2026-04-26 19:29 53.52343 15.02159 1859 ft 147 kts 311°
2026-04-26 19:29 53.52971 15.00934 1676 ft 132 kts 311°
2026-04-26 19:29 53.53564 14.99779 1477 ft 130 kts 311°
2026-04-26 19:29 53.54159 14.98620 1299 ft 132 kts 311°
2026-04-26 19:30 53.54759 14.97445 1105 ft 134 kts 311°
2026-04-26 19:30 53.55373 14.96243 981 ft 136 kts 311°
2026-04-26 19:30 53.55992 14.95033 807 ft 141 kts 310°
2026-04-26 19:30 53.56427 14.94175 665 ft 144 kts 311°
2026-04-26 19:31 53.57303 14.92486 379 ft 143 kts 311°
2026-04-26 19:31 53.57953 14.91230 182 ft 140 kts 310°
2026-04-26 19:31 53.58520 14.90127 147 ft 99 kts 311°
2026-04-26 19:31 53.58834 14.89519 137 ft 53 kts 311°
2026-04-26 19:32 53.59012 14.89172 134 ft 20 kts 309°
2026-04-26 19:32 53.59095 14.89145 131 ft 13 kts 38°
2026-04-26 19:32 53.59121 14.89186 127 ft 0 kts 42°
2026-04-26 19:33 53.59122 14.89187 127 ft 0 kts 42°
2026-04-26 19:33 53.59139 14.89212 130 ft 6 kts 41°
2026-04-26 19:34 53.59172 14.89265 129 ft 7 kts 43°
2026-04-26 19:34 53.59204 14.89320 131 ft 7 kts 49°
2026-04-26 19:34 53.59234 14.89376 130 ft 4 kts 48°
2026-04-26 19:34 53.59247 14.89400 131 ft 0 kts 48°